Startseite
Über Mich
AHP4
Galerie
Sehschlangen
Tourenbuch
Bookmarks
Elektronik
Bewertung
Geschichten
[Tagesmessung] [Jahreswerte] [Information]

Messwerte vom 19.04.2022

Die letzten Messwerte von 23:58:49 Uhr:
KategorieMesswert
Temperatur [°C]7
Luftdruck [mBar]1002
Sonneneinstrahlung0
Wind [km/h]2 aus Nordost
Niederschlag [l/m²]0
rel.Luftfeucht.66.9%
CO2 [ppm]594

Diagramme
Messwerte vom 19.04.2022
Tagesaggregation
KategorieMinimumMaximumSchnittSumme
Temperatur [°C]2168.6375
Luftdruck [mBar]99810031000.1313
Sonneneinstrahlung247124.4604
Wind [km/h]18
rF [%]29.390.558.89
Niederschlag [l/m²]0
CO2 [ppm]401759620.8
Einordnung alsVegetationstag

Messungen an benachbarten Tagen: Zur Jahresaggregation 2022
Tabelle aller Messwerte
UhrzeitTemperatur [°C]Luftdruck [mBar]SonneWind [km/h]RichtungRegen [l/m²]rF [%]CO2 [ppm]
00:01:48 4 1001 0 0 SO 0 79.5 734
00:04:47 4 1002 0 0 SO 0 79.8 739
00:07:48 4 1001 0 0 SO 0 79.3 739
00:10:47 4 1002 0 0 SO 0 78.9 743
00:13:51 4 1002 0 0 SO 0 79 739
00:16:48 4 1002 0 0 SO 0 78.8 738
00:19:47 4 1002 0 0 SO 0 78.9 737
00:22:46 4 1001 0 0 SO 0 79.2 738
00:25:47 4 1001 0 0 SO 0 79.7 735
00:28:48 3 1002 0 0 SO 0 79.4 733
00:31:45 3 1001 0 0 SO 0 79.5 743
00:34:47 3 1002 0 0 SO 0 79.4 741
00:37:47 3 1001 0 0 SO 0 79.4 747
00:40:48 3 1002 0 0 SO 0 79.7 749
00:43:46 3 1001 0 0 SO 0 79.9 746
00:46:48 3 1001 0 0 SO 0 80.3 753
00:49:48 3 1002 0 0 SO 0 80.4 755
00:52:45 4 1001 0 0 SO 0 80.6 755
00:55:45 4 1001 0 0 SO 0 80.4 750
00:58:46 4 1001 0 0 SO 0 80.6 757
01:01:50 4 1001 0 0 SO 0 80.8 757
01:04:48 4 1002 0 0 SO 0 80.8 756
01:07:47 4 1001 0 0 SO 0 81 749
01:10:49 4 1002 0 0 SO 0 81.2 750
01:13:48 4 1001 0 0 SO 0 80.8 747
01:16:48 4 1001 0 0 SO 0 80.9 755
01:19:47 4 1003 0 0 SO 0 80.7 753
01:22:47 4 1002 0 0 SO 0 80.7 752
01:25:45 4 1001 0 0 SO 0 80.9 747
01:28:50 4 1000 0 0 SO 0 81.5 750
01:31:48 4 1001 0 0 SO 0 81.6 749
01:34:47 4 1001 0 0 SO 0 81.7 753
01:37:47 4 1001 0 0 SO 0 81.7 746
01:40:45 4 1001 0 0 SO 0 81.5 753
01:43:49 4 1000 0 0 SO 0 82.1 753
01:46:46 4 1001 0 0 SO 0 83 759
01:49:47 4 1001 0 0 SO 0 82.8 750
01:52:49 4 1000 0 0 SO 0 82.5 738
01:55:47 4 1000 0 0 SO 0 82.3 741
01:58:47 4 1001 0 0 SO 0 82.2 738
02:01:48 4 1000 0 0 SO 0 82.7 736
02:04:49 4 1000 0 0 SO 0 83.7 735
02:07:46 4 1001 0 0 SO 0 84.5 732
02:10:47 4 1001 0 0 SO 0 84.5 735
02:13:47 4 1001 0 0 SO 0 83.3 735
02:16:45 4 1000 0 0 SO 0 82.9 741
02:19:47 3 1000 0 0 SO 0 83 745
02:22:51 3 1000 0 0 SO 0 83 743
02:25:49 3 1001 0 0 SO 0 83.3 746
02:28:48 3 1000 0 0 SO 0 83.5 750
02:31:50 3 1001 0 0 SO 0 84.2 744
02:34:44 3 1001 0 0 SO 0 84.1 744
02:37:47 4 1001 0 0 SO 0 84.6 744
02:40:50 4 1001 0 0 SO 0 84.3 742
02:43:48 4 1001 0 0 SO 0 84.4 741
02:46:46 4 1000 0 0 SO 0 84.8 743
02:49:45 4 1001 0 0 SO 0 84.7 742
02:52:46 4 1000 0 0 SO 0 84.9 741
02:55:46 4 1000 0 0 SO 0 84.2 741
02:58:46 4 999 0 0 SO 0 83.7 738
03:01:47 4 1000 0 0 SO 0 83.9 740
03:04:49 4 1000 0 0 SO 0 84.2 743
03:07:47 3 1000 0 0 SO 0 84.1 741
03:10:47 3 1000 0 0 SO 0 84.2 739
03:13:46 3 999 0 0 SO 0 84.1 726
03:16:45 3 1000 0 0 SO 0 84.5 720
03:19:48 3 1000 0 0 SO 0 84.2 733
03:22:45 3 999 0 0 SO 0 84.3 735
03:25:47 3 1000 0 0 SO 0 84.6 734
03:28:47 3 999 0 0 SO 0 85.1 735
03:31:48 3 999 0 0 SO 0 85.2 730
03:34:47 3 1000 0 0 SO 0 85.7 727
03:37:46 3 999 0 0 SO 0 86.3 728
03:40:47 3 999 0 0 SO 0 86.9 721
03:43:49 3 999 0 0 SO 0 87.2 715
03:46:49 3 1000 0 0 SO 0 87.1 709
03:49:48 3 1000 0 0 SO 0 87.2 722
03:52:47 3 1000 0 0 SO 0 87.8 732
03:55:48 3 999 0 0 SO 0 88 730
03:58:47 3 999 0 0 SO 0 87.8 729
04:01:48 3 999 0 0 SO 0 87.5 722
04:04:49 3 1000 0 0 SO 0 87.4 716
04:07:47 2 999 0 0 SO 0 87.4 719
04:10:50 2 999 0 0 SO 0 87.8 720
04:13:47 2 999 0 0 SO 0 87.9 718
04:16:50 2 1000 0 0 SO 0 87.9 713
04:19:48 2 1000 0 0 SO 0 87.9 712
04:22:47 2 999 0 0 SO 0 88.4 712
04:25:45 2 999 0 0 SO 0 88.6 714
04:28:47 2 999 0 0 SO 0 89.3 700
04:31:47 2 999 0 0 SO 0 90.1 707
04:34:48 2 999 0 0 SO 0 90.2 709
04:37:46 3 999 0 0 SO 0 90 713
04:40:49 3 999 0 0 SO 0 90 712
04:43:46 3 999 0 0 SO 0 90 712
04:46:49 3 999 0 0 SO 0 90.1 712
04:49:48 3 1000 0 0 SO 0 89.7 709
04:52:48 3 999 0 0 SO 0 89.9 709
04:55:48 3 999 0 0 SO 0 89.7 712
04:58:46 3 999 0 0 SO 0 89.7 708
05:01:45 3 999 0 0 O 0 89.6 705
05:04:46 3 999 0 0 O 0 90.3 706
05:07:46 3 1000 0 0 NO 0 90.4 705
05:10:48 3 999 0 0 NO 0 90.4 702
05:13:48 3 999 0 0 SO 0 90.3 695
05:16:46 3 999 0 0 SO 0 90 704
05:19:48 3 999 0 0 SO 0 90.1 700
05:22:46 3 999 0 0 SO 0 90.5 699
05:25:45 3 999 0 0 O 0 90.5 692
05:28:46 3 999 0 0 S 0 90.1 696
05:31:47 3 999 0 0 O 0 90 709
05:34:45 3 999 0 0 O 0 90 711
05:37:48 3 999 0 0 NO 0 90.1 709
05:40:47 3 999 0 0 SO 0 89.9 702
05:43:47 3 1000 0 0 SO 0 89.6 705
05:46:48 3 999 3 0 O 0 89.6 715
05:49:46 3 999 6 0 0 90 718
05:52:47 3 999 9 2 O 0 89.8 714
05:55:48 3 999 14 1 NO 0 89.7 712
05:58:47 3 999 21 1 SO 0 89.8 715
06:01:47 3 999 30 0 SO 0 89.7 709
06:04:47 3 999 39 2 SO 0 89.5 711
06:07:48 3 1000 50 1 SO 0 88.8 706
06:10:50 3 999 62 0 O 0 88.5 702
06:13:45 3 999 73 4 N 0 88.2 695
06:16:49 3 999 84 2 NO 0 87.8 694
06:19:47 3 1000 94 1 NW 0 87.5 695
06:22:48 3 1000 103 0 O 0 87 689
06:25:49 3 1000 110 1 NO 0 86.9 681
06:28:46 3 999 116 0 O 0 87 685
06:31:50 3 1000 119 0 0 87 686
06:34:49 3 999 125 1 SO 0 86.9 686
06:37:46 3 999 131 0 S 0 86.9 682
06:40:50 3 1000 135 0 O 0 87 682
06:43:49 3 1000 140 1 O 0 87 689
06:46:48 3 1000 147 1 O 0 86.9 686
06:49:51 3 1000 151 0 NO 0 86.7 682
06:52:49 3 1000 155 0 O 0 86.6 680
06:55:48 3 1000 158 0 O 0 86.4 662
06:58:47 3 1000 161 0 O 0 86 657
07:01:50 3 1000 164 0 NO 0 85.6 656
07:04:49 3 999 168 0 N 0 85.1 663
07:07:45 3 1000 173 0 O 0 84.6 650
07:10:50 4 1000 179 0 O 0 83.6 648
07:13:47 5 999 182 0 NO 0 82.4 641
07:16:48 5 1000 185 0 NO 0 80 636
07:19:47 5 999 189 1 N 0 78.3 632
07:22:32 3 999 191 0 NO 0 71.3 639
07:25:47 6 999 192 2 N 0 72.8 662
07:28:49 5 1000 194 3 NO 0 71.9 667
07:31:45 5 1000 194 4 0 72.7 665
07:34:49 5 1000 194 3 NO 0 71.7 662
07:37:48 5 999 194 1 O 0 72.2 667
07:40:49 5 1000 195 0 O 0 72.5 665
07:43:48 5 1000 196 1 N 0 72.5 666
07:46:46 5 999 197 1 O 0 72.5 667
07:49:52 5 1000 197 0 NW 0 72.2 675
07:52:51 5 1000 198 2 SO 0 72.5 687
07:55:47 5 1001 198 1 NW 0 72.4 674
07:58:45 5 999 198 4 N 0 71.7 675
08:01:47 5 1000 198 2 N 0 70.8 661
08:04:49 5 1001 197 3 N 0 70 663
08:07:47 5 1001 197 3 O 0 69.8 667
08:10:50 5 1000 197 4 NO 0 68.9 674
08:13:46 6 1000 196 4 O 0 68.3 679
08:16:48 6 1001 196 3 NO 0 68.6 671
08:19:46 6 999 196 6 N 0 68.4 671
08:22:47 6 1000 196 5 N 0 69.5 679
08:25:50 6 999 196 3 S 0 68.1 684
08:28:49 6 999 195 4 N 0 67.8 682
08:31:46 6 1000 195 3 N 0 68.1 677
08:34:47 6 1000 195 4 N 0 67.9 671
08:37:48 6 999 194 0 N 0 69 679
08:40:49 6 1001 194 1 NO 0 68.9 679
08:43:49 6 999 195 2 O 0 67.8 675
08:46:48 6 1000 195 4 NO 0 67.8 659
08:49:46 6 1001 194 5 N 0 67.6 651
08:52:48 6 1000 194 6 W 0 66.7 665
08:55:48 6 1000 193 2 O 0 66.3 671
08:58:48 6 1000 193 2 NO 0 65.8 691
09:01:48 6 1000 192 0 SO 0 65.8 683
09:04:48 6 1000 193 2 NO 0 65 685
09:07:47 6 1000 193 1 N 0 64.7 682
09:10:48 7 1000 195 1 N 0 65.4 682
09:13:45 7 1001 195 4 S 0 63.8 674
09:16:48 7 1000 194 4 NW 0 63.9 665
09:19:49 7 1001 195 7 N 0 62.4 657
09:22:48 7 1000 196 0 N 0 62.4 669
09:25:49 7 1000 197 3 NW 0 63 676
09:28:48 7 1000 199 1 N 0 62.7 681
09:31:49 7 1000 202 2 NO 0 61.3 666
09:34:47 7 1001 205 6 NO 0 60.6 667
09:37:46 7 1001 206 5 N 0 59.2 665
09:40:45 7 1001 206 4 0 59 671
09:43:49 7 1000 204 3 N 0 56.9 671
09:46:45 7 1000 202 6 O 0 56.4 671
09:49:47 8 1000 201 6 N 0 57.4 676
09:52:48 8 1001 200 3 SO 0 56 679
09:55:48 8 1000 199 2 N 0 56.8 680
09:58:47 8 1001 199 7 N 0 57 688
10:01:46 8 1000 199 2 O 0 57 691
10:04:48 8 1000 200 3 NW 0 56.1 694
10:07:48 8 1000 201 1 N 0 56.7 688
10:10:49 8 1001 201 5 W 0 54.6 697
10:13:47 8 1000 201 6 O 0 54.6 695
10:16:48 8 1001 202 12 NO 0 54.4 679
10:19:49 8 1000 201 6 N 0 54.6 671
10:22:49 9 1001 202 6 NO 0 54.5 627
10:25:47 9 1000 172 11 N 0 53.8 578
10:28:48 9 1001 202 2 W 0 53.1 552
10:31:48 9 1000 201 5 N 0 52.7 574
10:34:51 9 1001 201 8 NW 0 52.6 588
10:37:46 9 1001 202 1 N 0 52.1 617
10:40:49 9 1000 203 16 N 0 49.3 626
10:43:49 9 1000 203 5 NO 0 49.4 627
10:46:49 9 1001 203 4 N 0 50 633
10:49:46 9 1001 203 6 SW 0 50.1 630
10:52:50 9 1000 203 8 NO 0 49.4 624
10:55:45 9 1000 202 6 O 0 48.9 613
10:58:48 9 1001 202 3 NO 0 49 615
11:01:47 10 1000 202 7 N 0 49.8 629
11:04:49 10 1001 202 5 O 0 50.5 627
11:07:48 10 1000 202 3 NO 0 50.3 632
11:10:47 10 1000 201 4 NO 0 50.8 633
11:13:46 10 1001 202 7 NO 0 50.5 635
11:16:47 10 1000 202 5 N 0 49.3 621
11:19:49 10 1000 202 4 O 0 48.6 637
11:22:47 10 1000 202 4 N 0 48.6 652
11:25:48 10 1001 202 4 S 0 46.8 669
11:28:49 10 1000 202 4 0 44.8 656
11:31:50 10 1000 202 3 NO 0 44.7 644
11:34:48 10 1001 202 15 W 0 44.6 633
11:37:49 10 1000 202 5 N 0 43.2 627
11:40:48 11 1000 202 4 O 0 44.8 618
11:43:46 11 1001 202 9 N 0 44.5 621
11:46:47 11 1000 202 3 N 0 43 622
11:49:49 11 1000 202 4 NO 0 43.4 604
11:52:48 11 1000 202 7 NO 0 42.5 607
11:55:50 11 1000 202 2 NO 0 40.9 607
11:58:46 11 1000 203 11 O 0 40.2 621
12:01:48 11 1001 203 4 N 0 39.6 622
12:04:49 11 1000 203 5 NO 0 40.6 619
12:07:49 11 1000 204 6 SO 0 40.5 603
12:10:49 12 1002 204 9 NO 0 38.9 600
12:13:50 12 1000 205 8 NW 0 37.2 598
12:16:48 12 1000 205 7 NO 0 37.1 601
12:19:49 12 1000 206 10 NW 0 37.5 597
12:22:49 12 1001 206 2 SW 0 37.6 578
12:25:48 12 1000 206 8 N 0 37.4 572
12:28:48 12 1001 207 4 S 0 35.3 568
12:31:48 12 1000 207 4 N 0 34.1 583
12:34:46 12 1001 208 4 O 0 34.1 583
12:37:47 13 1001 208 4 N 0 33.5 588
12:40:50 13 1001 209 8 W 0 36.1 595
12:43:51 13 1001 209 10 NW 0 36 595
12:46:48 13 1001 210 2 NW 0 34.6 594
12:49:48 13 1001 210 7 O 0 33.9 604
12:52:48 13 1000 211 6 SO 0 33.6 609
12:55:48 13 1000 212 9 NW 0 33.4 618
12:58:49 13 1000 212 3 NW 0 34.6 621
13:01:46 13 1001 213 8 N 0 34.2 618
13:04:34 12 1001 213 6 NW 0 40 618
13:07:49 13 1001 214 12 O 0 34.4 623
13:10:50 13 1000 215 7 NW 0 34.3 626
13:13:48 13 1001 216 8 N 0 34.1 632
13:16:47 14 1000 216 9 NO 0 34 621
13:19:47 14 999 216 1 SO 0 33.6 615
13:22:48 14 1001 216 3 NO 0 34.3 612
13:25:49 14 1000 217 3 W 0 32.3 612
13:28:50 14 1000 217 8 NW 0 32.4 612
13:31:47 14 1000 218 5 N 0 32.5 621
13:34:47 14 1001 218 4 O 0 33.7 624
13:37:49 14 1000 219 11 W 0 32.8 635
13:40:49 14 1001 221 7 NW 0 31.7 633
13:43:53 14 1000 222 3 SO 0 31 630
13:46:46 14 1000 224 2 N 0 32.1 630
13:49:47 14 999 226 0 N 0 32.9 638
13:52:48 15 1000 227 2 S 0 32.2 638
13:55:47 15 1000 228 4 NW 0 31.3 638
13:58:47 15 1000 229 8 NW 0 30.5 641
14:01:47 15 1001 230 5 N 0 32.2 638
14:04:49 15 1000 230 5 SW 0 30.7 635
14:07:50 15 1000 230 8 NO 0 30 633
14:10:50 14 1000 230 1 SO 0 30.6 635
14:13:47 14 1000 231 6 NO 0 32.3 627
14:16:47 14 1000 232 5 SW 0 32.7 635
14:19:47 14 1000 234 6 N 0 31.1 636
14:22:48 14 999 235 12 N 0 31.3 653
14:25:47 14 1000 235 4 NO 0 30 648
14:28:48 14 1000 240 4 NO 0 30.9 647
14:31:46 14 1000 240 8 O 0 30 644
14:34:50 14 1000 241 2 SO 0 29.3 639
14:37:47 14 1000 244 10 NO 0 30.5 638
14:40:45 15 999 242 6 0 31.7 641
14:43:49 15 1000 243 7 SO 0 31.5 638
14:46:48 15 1000 243 3 NO 0 31.8 644
14:49:46 15 999 243 3 O 0 31.6 632
14:52:47 15 1000 243 7 W 0 30.5 627
14:55:48 15 999 243 4 NW 0 31 626
14:58:48 15 1001 244 3 N 0 31.5 631
15:01:49 15 999 244 9 SO 0 32.5 638
15:04:46 16 999 244 14 N 0 32.1 648
15:07:47 15 999 244 14 N 0 31.8 648
15:10:47 15 1000 245 16 N 0 31.1 642
15:13:48 15 999 245 9 N 0 30.9 639
15:16:49 15 999 245 12 O 0 31 639
15:19:48 15 999 245 5 O 0 30.4 642
15:22:45 15 999 245 5 O 0 31.5 633
15:25:47 15 999 245 1 NW 0 31 650
15:28:49 15 999 246 9 NW 0 30.8 649
15:31:48 15 999 245 5 NO 0 32.3 656
15:34:51 15 999 246 8 NW 0 29.8 653
15:37:47 15 999 246 5 N 0 30.3 658
15:40:50 15 999 246 10 N 0 31.2 657
15:43:48 15 999 246 18 N 0 31.2 653
15:46:49 15 999 246 12 N 0 31.8 653
15:49:48 15 999 246 5 SO 0 31.4 653
15:52:45 15 999 246 7 0 31.1 650
15:55:47 15 999 246 5 NO 0 30.3 659
15:58:47 15 999 246 6 NO 0 31 668
16:01:48 15 1000 246 15 NO 0 30.6 667
16:04:47 15 1000 247 9 N 0 29.5 662
16:07:49 15 999 247 4 NW 0 30.4 661
16:10:46 15 999 247 5 NO 0 30.8 653
16:13:46 15 999 247 12 N 0 30.7 652
16:16:46 15 999 247 7 N 0 32.2 650
16:19:48 15 999 218 7 N 0 32.3 644
16:22:32 14 999 247 5 N 0 40 616
16:25:48 16 999 219 2 SW 0 32.2 585
16:28:48 16 1000 219 4 NO 0 32 554
16:31:48 16 999 219 12 NO 0 30.7 533
16:34:46 16 999 247 4 0 33.5 551
16:37:46 16 999 247 7 N 0 33.9 530
16:40:49 16 998 247 7 NW 0 32.7 530
16:43:48 16 999 247 4 NO 0 32.2 530
16:46:48 16 999 247 3 NO 0 32.3 488
16:49:46 15 999 247 4 N 0 32.9 465
16:52:47 16 999 247 4 N 0 32.7 449
16:55:48 16 999 247 2 N 0 33.3 442
16:58:47 16 999 247 2 NO 0 33.3 440
17:01:47 16 999 247 8 SO 0 32.6 425
17:04:49 16 999 247 15 SW 0 33.5 431
17:07:49 16 999 247 7 N 0 33.5 430
17:10:48 16 999 247 4 S 0 33.4 434
17:13:47 16 1000 247 9 N 0 33.1 422
17:16:46 16 999 247 5 NO 0 33.5 416
17:19:47 16 999 247 4 O 0 33.3 416
17:22:48 16 999 247 7 NW 0 33.3 417
17:25:49 16 999 247 7 NO 0 33.4 422
17:28:49 16 999 247 11 NW 0 33.2 419
17:31:47 16 999 208 4 NO 0 33.5 424
17:34:48 16 1000 207 2 O 0 33.4 425
17:37:46 16 999 207 5 O 0 33.7 416
17:40:48 16 999 206 8 S 0 33.8 413
17:43:47 16 1000 205 7 O 0 34.9 412
17:46:48 16 998 205 2 NO 0 33.7 407
17:49:49 16 999 204 9 NW 0 34.1 413
17:52:48 16 999 247 4 N 0 34.4 409
17:55:47 16 999 247 5 N 0 34.5 401
17:58:47 16 999 247 9 N 0 34.4 406
18:01:47 16 999 247 8 NO 0 34.8 407
18:04:49 16 999 246 9 NO 0 35.5 424
18:07:50 16 999 247 4 NO 0 35.2 439
18:10:47 16 999 246 7 N 0 35.7 442
18:13:48 16 999 246 8 NO 0 35.7 444
18:16:47 15 999 246 7 SO 0 35.6 445
18:19:49 15 999 244 7 SO 0 36.5 445
18:22:48 15 999 241 3 N 0 37.4 447
18:25:45 15 999 241 7 O 0 37.7 456
18:28:47 15 999 242 4 NO 0 37.5 460
18:31:48 15 999 243 0 NO 0 38 459
18:34:47 14 999 243 8 NO 0 38.6 465
18:37:48 14 999 238 3 N 0 39.3 460
18:40:45 14 999 235 6 0 39.7 454
18:43:48 14 999 239 2 NO 0 40.4 451
18:46:48 14 999 239 8 N 0 40.6 457
18:49:48 14 1000 227 6 NO 0 41.1 457
18:52:46 14 999 233 3 NO 0 41.3 457
18:55:48 14 998 236 5 S 0 41 466
18:58:45 14 999 239 6 N 0 40.5 474
19:01:45 13 999 237 9 O 0 41.4 474
19:04:48 13 999 240 4 NO 0 41.5 471
19:07:48 13 998 242 4 O 0 41.7 463
19:10:47 13 999 240 3 N 0 41.5 471
19:13:48 13 999 238 2 SO 0 41.6 477
19:16:48 13 999 226 4 O 0 41.8 471
19:19:48 13 999 229 2 NO 0 42.7 472
19:22:47 13 1000 214 4 O 0 42.8 466
19:25:48 13 999 218 6 N 0 43.2 463
19:28:49 13 999 204 6 NO 0 42.9 458
19:31:46 13 999 203 5 N 0 43.2 457
19:34:49 12 999 199 3 NO 0 43.3 457
19:37:47 12 1000 195 6 N 0 43.8 463
19:40:48 12 999 192 4 NW 0 44 462
19:43:50 12 999 188 2 NW 0 44.9 457
19:46:48 12 999 185 4 NO 0 45.2 445
19:49:47 12 1000 181 3 NO 0 45.2 453
19:52:46 12 999 176 1 O 0 45.4 454
19:55:46 12 1000 171 4 N 0 45.7 465
19:58:49 12 1000 165 3 N 0 46 477
20:01:47 11 1000 158 0 S 0 46.6 483
20:04:48 11 999 151 3 NO 0 47.2 478
20:07:46 11 1000 143 7 0 47.6 478
20:10:47 11 1000 133 2 N 0 47.9 478
20:13:49 11 1000 124 1 NO 0 48.1 478
20:16:50 11 1000 46 1 NW 0 48.6 469
20:19:46 11 999 39 1 SO 0 48.9 419
20:22:47 11 1001 88 1 NO 0 49.4 407
20:25:49 10 1001 75 2 NW 0 49.7 416
20:28:46 10 1000 61 1 0 49.9 413
20:31:45 10 1001 48 1 O 0 50.5 415
20:34:48 10 1000 36 1 NO 0 50.6 435
20:37:47 10 1001 26 1 N 0 50.8 448
20:40:46 10 1001 18 4 N 0 51.3 451
20:43:46 10 1001 12 0 NO 0 51.7 460
20:46:47 10 1001 8 0 N 0 51.8 458
20:49:47 10 1001 5 2 NO 0 52.2 465
20:52:45 10 1001 3 1 N 0 52.4 468
20:55:46 9 1002 0 0 N 0 53 480
20:58:48 9 1001 0 0 N 0 53.4 487
21:01:48 9 1001 0 4 NO 0 54.1 494
21:04:45 9 1001 0 1 N 0 54.6 504
21:07:45 9 1001 0 1 N 0 54.5 506
21:10:46 9 1002 0 2 0 54.8 504
21:13:46 9 1001 0 1 O 0 54.9 509
21:16:45 9 1001 0 0 O 0 55.2 513
21:19:48 9 1001 0 1 NO 0 55.8 519
21:22:46 9 1001 0 1 NO 0 56.1 524
21:25:48 9 1002 0 0 NO 0 56 515
21:28:47 9 1001 0 0 N 0 56.5 522
21:31:47 8 1001 0 2 NO 0 57.5 526
21:34:46 8 1001 0 2 NO 0 57.9 533
21:37:48 8 1002 0 1 NO 0 58.3 536
21:40:47 8 1001 0 1 N 0 58.3 546
21:43:45 8 1001 0 3 N 0 58.5 545
21:46:47 8 1003 0 3 NO 0 58.5 548
21:49:45 8 1002 0 1 NO 0 58.2 544
21:52:47 8 1002 0 2 NO 0 58.2 548
21:55:48 8 1002 0 0 NO 0 58.2 550
21:58:48 8 1002 0 2 N 0 58.5 550
22:01:46 8 1001 0 1 NO 0 58.8 557
22:04:49 8 1002 0 9 N 0 59.2 557
22:07:47 8 1002 0 1 NO 0 59.4 558
22:10:46 8 1002 0 1 O 0 59.5 562
22:13:48 8 1002 0 2 NW 0 59.9 571
22:16:48 8 1002 0 2 O 0 60.1 572
22:19:48 8 1002 0 0 NO 0 60.2 574
22:22:47 8 1002 0 0 O 0 60.6 576
22:25:47 8 1002 0 1 N 0 61 576
22:28:49 8 1002 0 1 NO 0 61.6 583
22:31:46 8 1002 0 0 NO 0 61.9 586
22:34:49 8 1002 0 2 O 0 62.5 592
22:37:47 7 1001 0 1 O 0 62.7 590
22:40:47 7 1002 0 1 O 0 62.8 598
22:43:47 7 1002 0 2 W 0 63 603
22:46:46 7 1002 0 2 0 63.1 609
22:49:47 7 1002 0 3 NO 0 63.1 612
22:52:50 8 1002 0 0 O 0 62.9 606
22:55:51 7 1002 0 0 NW 0 62.9 606
22:58:46 7 1002 0 3 N 0 62.9 606
23:01:47 7 1002 0 1 NO 0 63.2 592
23:04:45 7 1002 0 2 N 0 63.4 559
23:07:45 7 1002 0 1 S 0 63.2 535
23:10:46 7 1002 0 0 NO 0 63.4 560
23:13:47 7 1002 0 2 NO 0 63.5 580
23:16:47 7 1003 0 2 NO 0 63.8 592
23:19:46 7 1002 0 2 NO 0 64 594
23:22:45 7 1002 0 3 NO 0 64.1 600
23:25:48 7 1002 0 4 NO 0 64.3 595
23:28:45 7 1002 0 2 O 0 64.4 599
23:31:45 7 1002 0 2 NO 0 64.6 594
23:34:46 7 1002 0 3 O 0 64.9 586
23:37:47 7 1002 0 2 N 0 65.1 585
23:40:47 7 1002 0 2 NO 0 65.3 582
23:43:49 7 1002 0 1 O 0 65.3 582
23:46:45 7 1002 0 1 N 0 65.4 585
23:49:50 7 1002 0 0 NO 0 65.9 588
23:52:45 7 1002 0 2 O 0 66.6 586
23:55:47 7 1002 0 3 N 0 66.8 594
23:58:49 7 1002 0 2 NO 0 66.9 594

Letzte Änderung : 04-Jan-2022
Copyright Jens Köhler, Wolfsburg, Obere Dorfstraße 10d